[[{"header":{"parameterUnit":"m.s-1","parameterCategory":1,"la1":30.2992,"la2":30.254,"lo1":-89.0895,"lo2":-89.0443,"dy":0.0025,"dx":0.0025,"nx":19,"ny":19,"refTime":"2026-04-24T03:00:00:Z","depth":0,"parameterNumber":2,"parameterNumberName":"U-component_of_WINDS"},"data":[0,0,0,-3.9532,-3.9532,-3.9512,-3.9512,-3.9508,-3.9508,0,0,0,0,0,0,0,0,0,0,0,-3.9551,-3.9551,-3.9532,-3.9532,-3.9512,-3.9512,-3.9508,-3.9508,0,0,0,0,0,0,0,0,0,0,0,-3.9551,-3.9551,-3.9552,-3.9532,-3.9512,-3.9512,-3.9508,-3.9516,0,0,0,0,0,0,0,0,0,0,-3.9531,-3.9561,-3.9551,-3.9552,-3.9532,-3.9512,-3.9512,-3.9516,-3.9515,-3.9526,0,-3.9539,0,-3.9524,-3.9509,-3.951,0,0,0,-3.9523,-3.9561,-3.9544,-3.9552,-3.9532,-3.9513,-3.9519,-3.9515,-3.9515,-3.9526,-3.9539,-3.9538,-3.9524,-3.951,-3.951,-3.9602,-3.9603,0,0,-3.9524,-3.9554,-3.9545,-3.9545,-3.9549,-3.9519,-3.9518,-3.9514,-3.9531,-3.9539,-3.9538,-3.9524,-3.951,-3.951,-3.9602,-3.9603,0,0,0,-3.9533,-3.9556,-3.9538,-3.9545,-3.954,-3.9519,-3.9518,-3.9531,-3.9523,-3.9538,-3.9524,-3.951,-3.951,-3.9601,-3.9602,-3.9671,0,0,0,-3.9534,-3.9561,-3.9539,-3.9558,-3.9541,-3.9535,-3.9535,-3.9523,-3.9522,-3.9524,-3.951,-3.951,-3.96,-3.9601,-3.9667,-3.9698,0,0,0,-3.9548,-3.9562,-3.9564,-3.9559,-3.9552,-3.9535,-3.9526,-3.9522,-3.9514,-3.951,-3.951,-3.9599,-3.9601,-3.9664,-3.9692,-3.9728,0,0,0,-3.9572,-3.9629,-3.9566,-3.9623,-3.9552,-3.9579,-3.9526,-3.9545,-3.9549,-3.951,-3.96,-3.9602,-3.9663,-3.9689,-3.9725,-3.9761,-3.9781,0,0,-3.966,-3.964,-3.9672,-3.9615,-3.966,-3.958,-3.9635,-3.9611,-3.9585,-3.9598,-3.96,-3.9669,-3.9692,-3.9727,-3.9884,-3.99,0,0,0,-3.971,-3.9732,-3.9738,-3.9743,-3.9726,-3.9712,-3.9677,-3.9669,-3.9678,-3.9598,-3.9693,-3.9706,-3.9725,-3.9741,-3.9754,-3.9767,-3.9612,-3.9611,-3.9611,-3.9876,-3.9837,-3.9885,-3.9843,-3.9849,-3.9812,-3.9812,-3.9794,-3.9755,-3.9778,-3.978,-3.988,-3.99,-3.9909,-3.9924,-3.98,-3.98,-3.98,-3.9801,-3.9997,-4.0021,-3.9966,-3.9993,-3.9951,-3.9973,-3.994,-3.9911,-3.9925,-3.9875,-3.9891,-3.9836,-3.9927,-3.9937,-3.9805,-3.9805,-3.9804,-3.9804,-3.9803,-4.0098,-4.0102,-4.009,-4.0092,-4.0099,-4.0056,-4.007,-4.0034,-3.9999,-4.0015,-4.0011,-4.0009,-4.0,-4.0016,-4.0017,-4.0017,-4.0017,-4.0018,-4.0018,-4.0206,-4.019,-4.0206,-4.0192,-4.0189,-4.0181,-4.0144,-4.0141,-4.0127,-4.0099,-4.0098,-4.0054,-3.9945,-3.9915,-4.0023,-4.0022,-4.0021,-4.0021,-4.0021,-4.0336,-4.03,-4.0326,-4.0323,-4.0302,-4.0309,-4.0262,-4.0258,-4.025,-4.0258,-4.0212,-4.0138,-4.0115,-4.0104,-4.0079,-4.0222,-4.0222,-4.0222,-4.0222,-4.0417,-4.0403,-4.0419,-4.0416,-4.041,-4.037,-4.0398,-4.037,-4.0336,-4.0328,-4.0303,-4.0269,-4.026,-4.0242,-4.0228,-4.0204,-4.0376,-4.0376,-4.0376,-4.0493,-4.0476,-4.0507,-4.0472,-4.0453,-4.0437,-4.0461,-4.046,-4.0415,-4.0381,-4.032,-4.0314,-4.0258,-4.0243,-4.0204,-4.0183,-4.0138,0,0]},{"header":{"parameterUnit":"m.s-1","parameterCategory":1,"la1":30.2992,"la2":30.254,"lo1":-89.0895,"lo2":-89.0443,"dy":0.0025,"dx":0.0025,"nx":19,"ny":19,"refTime":"2026-04-24T03:00:00:Z","depth":0,"parameterNumber":3,"parameterNumberName":"V-component_of_WINDS"},"data":[0,0,0,2.178,2.1778,2.1666,2.1666,2.1542,2.1541,0,0,0,0,0,0,0,0,0,0,0,2.183,2.183,2.178,2.1778,2.1666,2.1666,2.1543,2.1541,0,0,0,0,0,0,0,0,0,0,0,2.183,2.183,2.183,2.1778,2.1667,2.1666,2.1543,2.1619,0,0,0,0,0,0,0,0,0,0,2.1724,2.1788,2.183,2.183,2.1777,2.1667,2.1666,2.1622,2.1614,2.1603,0,2.1602,0,2.157,2.1535,2.1535,0,0,0,2.1764,2.1795,2.175,2.183,2.1776,2.1667,2.1713,2.1617,2.1608,2.1593,2.16,2.1595,2.1568,2.1534,2.1534,2.1527,2.1528,0,0,2.177,2.1818,2.1756,2.1745,2.1769,2.1717,2.171,2.1612,2.1621,2.16,2.1592,2.1566,2.1534,2.1533,2.1527,2.1527,0,0,0,2.1798,2.1823,2.178,2.1751,2.1729,2.1714,2.1706,2.1625,2.1608,2.159,2.1565,2.1533,2.1532,2.1526,2.1527,2.1606,0,0,0,2.1801,2.1839,2.1783,2.1812,2.1732,2.1677,2.1722,2.1614,2.1602,2.1566,2.1533,2.1531,2.1525,2.1526,2.1603,2.1635,0,0,0,2.1832,2.1842,2.1833,2.1814,2.1769,2.1678,2.1654,2.1611,2.1587,2.1535,2.1531,2.1525,2.1526,2.1599,2.163,2.1648,0,0,0,2.1878,2.1903,2.1835,2.1852,2.177,2.1729,2.1654,2.162,2.1584,2.1533,2.1525,2.1527,2.1598,2.1626,2.1645,2.1672,2.1689,0,0,2.1936,2.1912,2.1918,2.1854,2.1839,2.1742,2.1735,2.1655,2.1604,2.1554,2.1553,2.1604,2.1629,2.1647,2.1763,2.1776,0,0,0,2.1953,2.1958,2.1943,2.1914,2.1856,2.1807,2.1724,2.1693,2.165,2.159,2.1614,2.1627,2.1635,2.1646,2.1658,2.1661,2.1534,2.1534,2.1534,2.2104,2.204,2.2046,2.1968,2.194,2.1854,2.1823,2.1766,2.1708,2.1714,2.1699,2.1778,2.1793,2.1801,2.1805,2.1708,2.1709,2.1709,2.1709,2.2183,2.2181,2.2104,2.2082,2.2012,2.1991,2.1907,2.1866,2.1834,2.1784,2.1788,2.174,2.1818,2.1818,2.1714,2.1713,2.1713,2.1712,2.1712,2.2276,2.2263,2.2228,2.2179,2.2146,2.2064,2.2037,2.1973,2.1912,2.1916,2.1893,2.1891,2.1881,2.191,2.191,2.191,2.191,2.191,2.1911,2.2385,2.2343,2.2332,2.2272,2.2244,2.2198,2.211,2.2079,2.2027,2.1982,2.1982,2.1921,2.1838,2.1819,2.1915,2.1914,2.1913,2.1913,2.1913,2.2491,2.2457,2.2439,2.2411,2.2334,2.2305,2.2224,2.2166,2.213,2.2118,2.2056,2.2005,2.1974,2.1965,2.1948,2.2071,2.2071,2.2071,2.2071,2.2569,2.2548,2.2514,2.2474,2.2426,2.2351,2.2328,2.2258,2.2179,2.2152,2.2124,2.2096,2.209,2.2062,2.2051,2.2034,2.2176,2.2176,2.2177,2.263,2.2601,2.2596,2.2524,2.2458,2.2402,2.2377,2.2329,2.2232,2.2179,2.2129,2.2124,2.2079,2.2067,2.2015,2.1998,2.1967,0,0]}]]